Ocean City, MD

2:24 AM EDT on April 27, 2017 (GMT -0400)
Ocean City Municipal

Weather History for KOXB - November, 2011

Change the Weather History Date:

Monday, November 21, 2011

  Actual Average (KSBY) Record (KSBY)
Temperature  
Mean Temperature 56 °F -  
Max Temperature 59 °F 54 °F 77 °F (1931)
Min Temperature 53 °F 35 °F 19 °F (2001)
Degree Days  
Heating Degree Days 9    
Growing Degree Days 6 (Base 50)    
Moisture  
Dew Point 54 °F    
Average Humidity 92    
Maximum Humidity 96    
Minimum Humidity 88    
Precipitation  
Precipitation 0.10 in - - ()
Sea Level Pressure  
Sea Level Pressure 30.22 in    
Wind  
Wind Speed 5 mph (ENE)    
Max Wind Speed 12 mph    
Max Gust Speed 16 mph    
Visibility 7 miles    
Events Rain    
Averages and records for this station are not official NWS values.
T = Trace of Precipitation, MM = Missing Value Source: NWS Daily Summary

Daily Weather History Graph

Daily Weather History Graph

Search for Another Location

Airport or City:

Trip Planner

Search our weather history database for the weather conditions in past years. The results will help you decide how hot, cold, wet, or windy it might be!

Date:

Astronomy

Nov. 21, 2011 Rise Set
Actual Time 6:47 AM EST 4:44 PM EST
Civil Twilight 6:19 AM EST 5:12 PM EST
Nautical Twilight 5:47 AM EST 5:45 PM EST
Astronomical Twilight 5:15 AM EST 6:16 PM EST
Moon 2:26 AM EST (11/21) 2:02 PM EST (11/21)
Length of Visible Light 10h 53m
Length of Day
9h 56m
Waning Crescent, 18% of the Moon is Illuminated
Nov 21
Waning Crescent
Nov 25
New
Dec 2
First Quarter
Dec 10
Full
Dec 17
Last Quarter

Hourly Weather History & Observations

Time (EST) Temp. Dew Point Humidity Pressure Visibility Wind Dir Wind Speed Gust Speed Precip Events Conditions
12:53 AM 55.9 °F 54.0 °F 93% 30.14 in 10.0 mi SSW 3.5 mph - N/A   Overcast
1:53 AM 55.9 °F 54.0 °F 93% 30.13 in 10.0 mi SW 3.5 mph - N/A   Overcast
2:53 AM 55.9 °F 53.1 °F 90% 30.13 in 10.0 mi Variable 3.5 mph - N/A   Overcast
3:53 AM 55.9 °F 54.0 °F 93% 30.12 in 10.0 mi Calm Calm - 0.00 in   Overcast
4:53 AM 57.0 °F 55.0 °F 93% 30.14 in 10.0 mi Calm Calm - N/A   Overcast
5:53 AM 57.0 °F 55.0 °F 93% 30.15 in 5.0 mi NNE 4.6 mph - 0.02 in Rain Light Rain
6:04 AM 57.2 °F 55.4 °F 94% 30.16 in 4.0 mi NNE 5.8 mph - 0.02 in Rain Light Rain
6:13 AM 57.2 °F 55.4 °F 94% 30.16 in 3.0 mi NNE 5.8 mph - 0.04 in Rain Light Rain
6:27 AM 57.2 °F 55.4 °F 94% 30.17 in 5.0 mi NNE 3.5 mph - 0.05 in Rain Light Rain
6:53 AM 57.0 °F 55.9 °F 96% 30.18 in 3.0 mi NE 6.9 mph - 0.07 in Rain Light Rain
7:25 AM 57.2 °F 55.4 °F 94% 30.18 in 3.0 mi NE 6.9 mph - 0.01 in   Overcast
7:37 AM 57.2 °F 55.4 °F 94% 30.19 in 4.0 mi ENE 9.2 mph - 0.01 in   Overcast
7:53 AM 57.0 °F 55.0 °F 93% 30.19 in 6.0 mi ENE 8.1 mph - 0.01 in   Overcast
8:21 AM 57.2 °F 55.4 °F 94% 30.20 in 7.0 mi ENE 4.6 mph - N/A   Overcast
8:45 AM 57.2 °F 55.4 °F 94% 30.23 in 7.0 mi NNE 6.9 mph - N/A   Overcast
8:53 AM 57.0 °F 55.0 °F 93% 30.22 in 8.0 mi NE 4.6 mph - N/A   Overcast
9:42 AM 57.2 °F 55.4 °F 94% 30.23 in 7.0 mi ESE 4.6 mph - N/A   Overcast
9:53 AM 57.9 °F 55.9 °F 93% 30.24 in 7.0 mi NE 4.6 mph - N/A   Overcast
10:08 AM 57.2 °F 55.4 °F 94% 30.23 in 8.0 mi NE 6.9 mph - N/A   Overcast
10:20 AM 57.2 °F 55.4 °F 94% 30.24 in 7.0 mi NE 5.8 mph - N/A   Overcast
10:43 AM 59.0 °F 55.4 °F 88% 30.24 in 8.0 mi ENE 6.9 mph - N/A   Overcast
10:53 AM 59.0 °F 55.9 °F 90% 30.24 in 8.0 mi NE 5.8 mph - N/A   Overcast
11:19 AM 59.0 °F 55.4 °F 88% 30.23 in 9.0 mi NNE 6.9 mph - N/A   Overcast
11:53 AM 57.9 °F 55.0 °F 90% 30.22 in 8.0 mi NE 8.1 mph - N/A   Unknown
12:06 PM 57.2 °F 55.4 °F 94% 30.23 in 6.0 mi NE 11.5 mph 16.1 mph N/A   Overcast
12:53 PM 57.0 °F 54.0 °F 89% 30.21 in 6.0 mi NE 11.5 mph - N/A   Overcast
1:53 PM 55.9 °F 53.1 °F 90% 30.21 in 5.0 mi NE 9.2 mph - N/A   Overcast
2:53 PM 55.9 °F 53.1 °F 90% 30.20 in 5.0 mi NE 6.9 mph - N/A   Overcast
3:53 PM 55.0 °F 53.1 °F 93% 30.22 in 4.0 mi ENE 6.9 mph - N/A   Overcast
4:53 PM 55.0 °F 53.1 °F 93% 30.23 in 6.0 mi ENE 5.8 mph - N/A   Overcast
5:02 PM 55.4 °F 53.6 °F 94% 30.23 in 7.0 mi ENE 4.6 mph - N/A   Overcast
5:21 PM 55.4 °F 53.6 °F 94% 30.25 in 7.0 mi NNE 4.6 mph - N/A   Overcast
5:28 PM 55.4 °F 53.6 °F 94% 30.25 in 7.0 mi NNE 3.5 mph - N/A   Overcast
5:44 PM 55.4 °F 53.6 °F 94% 30.26 in 7.0 mi NE 3.5 mph - N/A   Overcast
5:53 PM 55.9 °F 53.1 °F 90% 30.26 in 7.0 mi ENE 5.8 mph - N/A   Overcast
6:20 PM 55.4 °F 53.6 °F 94% 30.26 in 8.0 mi NE 5.8 mph - N/A   Overcast
6:44 PM 55.4 °F 51.8 °F 88% 30.26 in 8.0 mi NE 5.8 mph - N/A   Overcast
6:53 PM 55.0 °F 52.0 °F 89% 30.26 in 8.0 mi ENE 6.9 mph - N/A   Overcast
6:59 PM 55.4 °F 51.8 °F 88% 30.26 in 8.0 mi ENE 4.6 mph - N/A   Overcast
7:30 PM 55.4 °F 51.8 °F 88% 30.25 in 8.0 mi ENE 6.9 mph - N/A   Overcast
7:53 PM 55.0 °F 52.0 °F 89% 30.25 in 9.0 mi ENE 6.9 mph - N/A   Overcast
8:53 PM 55.0 °F 53.1 °F 93% 30.27 in 8.0 mi East 3.5 mph - N/A   Overcast
9:45 PM 55.4 °F 51.8 °F 88% 30.26 in 9.0 mi East 4.6 mph - N/A   Overcast
9:53 PM 55.0 °F 52.0 °F 89% 30.26 in 9.0 mi East 4.6 mph - N/A   Overcast
10:53 PM 55.0 °F 53.1 °F 93% 30.26 in 8.0 mi ESE 3.5 mph - N/A   Overcast
11:16 PM 53.6 °F 51.8 °F 94% 30.25 in 8.0 mi East 5.8 mph - N/A   Scattered Clouds
11:53 PM 55.0 °F 52.0 °F 89% 30.25 in 9.0 mi ESE 4.6 mph - N/A   Overcast